When you browse on this site, cookies collect data to enhance your experience and personalize the content and advertising you see.
Visit our Privacy Policy to learn more. By continuing to use the site, you agree to this use of cookies and data.
  • In Austria
  • List of Countries
  • For 7 days
  • Water Temperature
  • Weather Map
  • News
  • Weather Widgets
  • user-avatar
    Login

    Hourly Weather Vidin

    Today, 20 October, Sunday

    Time Temperature Precipitation Wind Pressure Humidity
    00:00 +19°C° 0 mm 1 mps 761 mmHg 54%
    01:00 +18°C° 0 mm 1 mps 761 mmHg 56%
    02:00 +16°C° 0 mm 1 mps 761 mmHg 58%
    03:00 +16°C° 0 mm 1 mps 761 mmHg 60%
    04:00 +16°C° 0 mm 1 mps 761 mmHg 62%
    05:00 +15°C° 0 mm 1 mps 761 mmHg 64%
    06:00 +16°C° 0 mm 1 mps 761 mmHg 63%
    07:00 +16°C° 0 mm 1 mps 762 mmHg 61%
    08:00 +18°C° 0 mm 1 mps 762 mmHg 57%
    09:00 +20°C° 0 mm 1 mps 762 mmHg 52%
    10:00 +21°C° 0 mm 1 mps 762 mmHg 47%
    11:00 +23°C° 0 mm 1 mps 762 mmHg 42%
    12:00 +25°C° 0 mm 1 mps 762 mmHg 40%
    13:00 +26°C° 0 mm 1 mps 761 mmHg 37%
    14:00 +27°C° 0 mm 1 mps 761 mmHg 35%
    15:00 +26°C° 0 mm 1 mps 761 mmHg 36%
    16:00 +26°C° 0 mm 1 mps 761 mmHg 37%
    17:00 +25°C° 0 mm 1 mps 761 mmHg 39%
    18:00 +24°C° 0 mm 1 mps 761 mmHg 43%
    19:00 +22°C° 0 mm 1 mps 762 mmHg 46%
    20:00 +21°C° 0 mm 1 mps 762 mmHg 50%
    21:00 +20°C° 0 mm 1 mps 762 mmHg 52%
    22:00 +20°C° 0 mm 1 mps 762 mmHg 54%
    23:00 +19°C° 0 mm 1 mps 762 mmHg 56%

    Tomorrow, 21 October, Monday

    Time Temperature Precipitation Wind Pressure Humidity
    00:00 +19°C° 0 mm 1 mps 762 mmHg 58%
    01:00 +18°C° 0 mm 1 mps 762 mmHg 60%
    02:00 +18°C° 0 mm 1 mps 762 mmHg 62%
    03:00 +16°C° 0 mm 1 mps 763 mmHg 64%
    04:00 +16°C° 0 mm 1 mps 763 mmHg 67%
    05:00 +14°C° 0 mm 0 mps 763 mmHg 69%
    06:00 +16°C° 0 mm 1 mps 763 mmHg 68%
    07:00 +16°C° 0 mm 1 mps 763 mmHg 66%
    08:00 +18°C° 0 mm 1 mps 763 mmHg 65%
    09:00 +20°C° 0 mm 1 mps 763 mmHg 58%
    10:00 +22°C° 0 mm 1 mps 763 mmHg 51%
    11:00 +24°C° 0 mm 1 mps 763 mmHg 44%
    12:00 +25°C° 0 mm 1 mps 763 mmHg 41%
    13:00 +27°C° 0 mm 1 mps 763 mmHg 37%
    14:00 +28°C° 0 mm 1 mps 763 mmHg 34%
    15:00 +27°C° 0 mm 1 mps 762 mmHg 36%
    16:00 +26°C° 0 mm 1 mps 762 mmHg 38%
    17:00 +26°C° 0 mm 1 mps 762 mmHg 40%
    18:00 +24°C° 0 mm 1 mps 762 mmHg 43%
    19:00 +21°C° 0 mm 0 mps 763 mmHg 47%
    20:00 +19°C° 0 mm 0 mps 763 mmHg 50%
    21:00 +19°C° 0 mm 0 mps 763 mmHg 52%
    22:00 +18°C° 0 mm 0 mps 763 mmHg 54%
    23:00 +17°C° 0 mm 0 mps 763 mmHg 56%

    Day after tomorrow, 22 October, Tuesday

    Time Temperature Precipitation Wind Pressure Humidity
    00:00 +17°C° 0 mm 0 mps 763 mmHg 58%
    01:00 +17°C° 0 mm 0 mps 763 mmHg 59%
    02:00 +16°C° 0 mm 0 mps 764 mmHg 61%
    03:00 +16°C° 0 mm 0 mps 764 mmHg 63%
    04:00 +15°C° 0 mm 0 mps 764 mmHg 64%
    05:00 +15°C° 0 mm 0 mps 764 mmHg 66%
    06:00 +15°C° 0 mm 0 mps 764 mmHg 65%
    07:00 +16°C° 0 mm 0 mps 764 mmHg 64%
    08:00 +16°C° 0 mm 0 mps 764 mmHg 62%
    09:00 +20°C° 0 mm 1 mps 764 mmHg 56%
    10:00 +22°C° 0 mm 1 mps 764 mmHg 49%
    11:00 +24°C° 0 mm 2 mps 764 mmHg 42%
    12:00 +26°C° 0 mm 2 mps 764 mmHg 39%
    13:00 +27°C° 0 mm 2 mps 764 mmHg 36%
    14:00 +28°C° 0 mm 2 mps 763 mmHg 33%
    15:00 +27°C° 0 mm 2 mps 763 mmHg 35%
    16:00 +27°C° 0 mm 2 mps 763 mmHg 36%
    17:00 +26°C° 0 mm 2 mps 763 mmHg 38%
    18:00 +24°C° 0 mm 2 mps 763 mmHg 42%
    19:00 +23°C° 0 mm 2 mps 764 mmHg 47%
    20:00 +20°C° 0 mm 2 mps 764 mmHg 51%
    21:00 +19°C° 0 mm 2 mps 764 mmHg 53%
    22:00 +19°C° 0 mm 2 mps 764 mmHg 56%
    23:00 +19°C° 0 mm 1 mps 764 mmHg 58%

    23 October, Wednesday

    Time Temperature Precipitation Wind Pressure Humidity
    00:00 +18°C° 0 mm 1 mps 764 mmHg 59%
    01:00 +18°C° 0 mm 1 mps 764 mmHg 59%
    02:00 +16°C° 0 mm 1 mps 764 mmHg 60%
    03:00 +16°C° 0 mm 1 mps 764 mmHg 61%
    04:00 +15°C° 0 mm 1 mps 764 mmHg 63%
    05:00 +14°C° 0 mm 1 mps 764 mmHg 64%
    06:00 +15°C° 0 mm 1 mps 764 mmHg 63%
    07:00 +15°C° 0 mm 1 mps 764 mmHg 62%
    08:00 +14°C° 0 mm 0 mps 764 mmHg 61%
    09:00 +18°C° 0 mm 1 mps 763 mmHg 55%
    10:00 +20°C° 0 mm 1 mps 763 mmHg 48%
    11:00 +23°C° 0 mm 2 mps 763 mmHg 41%
    12:00 +24°C° 0 mm 2 mps 762 mmHg 37%
    13:00 +25°C° 0 mm 2 mps 762 mmHg 33%
    14:00 +27°C° 0 mm 2 mps 762 mmHg 30%
    15:00 +26°C° 0 mm 2 mps 761 mmHg 31%
    16:00 +25°C° 0 mm 2 mps 761 mmHg 32%
    17:00 +24°C° 0 mm 2 mps 761 mmHg 33%
    18:00 +23°C° 0 mm 1 mps 761 mmHg 36%
    19:00 +21°C° 0 mm 1 mps 761 mmHg 38%
    20:00 +20°C° 0 mm 1 mps 761 mmHg 41%
    21:00 +19°C° 0 mm 1 mps 761 mmHg 41%
    22:00 +18°C° 0 mm 1 mps 762 mmHg 42%
    23:00 +18°C° 0 mm 1 mps 762 mmHg 42%

    24 October, Thursday

    Time Temperature Precipitation Wind Pressure Humidity
    00:00 +16°C° 0 mm 1 mps 762 mmHg 43%
    01:00 +15°C° 0 mm 1 mps 761 mmHg 44%
    02:00 +15°C° 0 mm 1 mps 761 mmHg 45%
    03:00 +14°C° 0 mm 1 mps 761 mmHg 46%
    04:00 +14°C° 0 mm 1 mps 761 mmHg 48%
    05:00 +13°C° 0 mm 1 mps 761 mmHg 50%
    06:00 +14°C° 0 mm 1 mps 761 mmHg 50%
    07:00 +14°C° 0 mm 1 mps 761 mmHg 49%
    08:00 +14°C° 0 mm 1 mps 761 mmHg 49%
    09:00 +18°C° 0 mm 1 mps 760 mmHg 45%
    10:00 +20°C° 0 mm 1 mps 760 mmHg 40%
    11:00 +21°C° 0 mm 2 mps 760 mmHg 36%
    12:00 +23°C° 0 mm 2 mps 760 mmHg 33%
    13:00 +25°C° 0 mm 2 mps 759 mmHg 30%
    14:00 +26°C° 0 mm 3 mps 759 mmHg 28%
    15:00 +26°C° 0 mm 2 mps 759 mmHg 29%
    16:00 +25°C° 0 mm 2 mps 758 mmHg 30%
    17:00 +24°C° 0 mm 2 mps 758 mmHg 31%
    18:00 +21°C° 0 mm 2 mps 758 mmHg 35%
    19:00 +20°C° 0 mm 2 mps 758 mmHg 38%
    20:00 +18°C° 0 mm 2 mps 759 mmHg 42%
    21:00 +17°C° 0 mm 2 mps 759 mmHg 44%
    22:00 +18°C° 0 mm 1 mps 759 mmHg 46%
    23:00 +16°C° 0 mm 1 mps 759 mmHg 48%

    25 October, Friday

    Time Temperature Precipitation Wind Pressure Humidity
    00:00 +15°C° 0 mm 1 mps 759 mmHg 50%
    01:00 +15°C° 0 mm 1 mps 759 mmHg 52%
    02:00 +14°C° 0 mm 1 mps 759 mmHg 55%
    03:00 +14°C° 0 mm 1 mps 759 mmHg 57%
    04:00 +13°C° 0 mm 1 mps 759 mmHg 60%
    05:00 +13°C° 0 mm 1 mps 759 mmHg 63%
    06:00 +13°C° 0 mm 1 mps 759 mmHg 62%
    07:00 +13°C° 0 mm 1 mps 760 mmHg 62%
    08:00 +14°C° 0 mm 1 mps 760 mmHg 61%
    09:00 +16°C° 0 mm 1 mps 760 mmHg 54%
    10:00 +19°C° 0 mm 1 mps 760 mmHg 48%
    11:00 +21°C° 0 mm 1 mps 760 mmHg 41%
    12:00 +23°C° 0 mm 1 mps 760 mmHg 38%
    13:00 +24°C° 0 mm 1 mps 759 mmHg 35%
    14:00 +25°C° 0 mm 2 mps 759 mmHg 32%
    15:00 +24°C° 0 mm 1 mps 759 mmHg 33%
    16:00 +24°C° 0 mm 1 mps 759 mmHg 35%
    17:00 +23°C° 0 mm 1 mps 759 mmHg 37%
    18:00 +21°C° 0 mm 1 mps 759 mmHg 40%
    19:00 +20°C° 0 mm 1 mps 760 mmHg 44%
    20:00 +19°C° 0 mm 1 mps 760 mmHg 47%
    21:00 +18°C° 0 mm 1 mps 760 mmHg 49%
    22:00 +16°C° 0 mm 1 mps 761 mmHg 51%
    23:00 +16°C° 0 mm 1 mps 761 mmHg 53%
    Show more